EW3148 Weather Reports


Display with metric or nautical units.
time (UTC)temp
F
wind
direction
speed
MPH
gust
MPH
rain 1hr
in
rain 24hr
in
rain mn
in
humidity
%
barometer
mb
20260502123704 48 324 0.0 2.0 0.00 0.53 0.01 96 1020.3
20260502122624 47 327 0.0 1.0 0.00 0.54 0.01 96 1020.3
20260502121626 47 311 0.0 1.0 0.00 0.59 0.01 95 1020.0
20260502120620 47 355 0.0 1.0 0.00 0.60 0.01 95 1019.7
20260502115625 47 355 0.0 0.0 0.00 0.60 0.01 95 1019.5
20260502113508 48 355 0.0 0.0 0.00 0.70 0.01 95 1019.3
20260502112450 48 355 0.0 1.0 0.00 0.73 0.01 95 1019.2
20260502111453 48 355 0.0 2.0 0.00 0.76 0.01 95 1019.0
20260502110419 48 0 0.0 2.0 0.00 0.79 0.01 95 1018.9
20260502104315 48 346 0.0 3.0 0.00 0.82 0.01 95 1018.9
20260502103340 49 0 1.0 3.0 0.00 0.83 0.01 95 1018.6
20260502101247 49 336 2.0 5.0 0.00 0.89 0.01 95 1018.1
20260502090852 50 11 2.0 6.0 0.00 0.97 0.00 95 1017.2
20260502070607 51 355 2.0 5.0 0.00 1.17 0.00 95 1016.9
20260502065606 51 5 1.0 5.0 0.00 1.17 0.00 95 1016.8
20260502064607 51 30 2.0 5.0 0.00 1.17 0.00 95 1016.8
20260502063607 51 0 1.0 4.0 0.00 1.17 0.00 95 1016.8
20260502062536 51 351 2.0 7.0 0.00 1.17 0.00 95 1017.0
20260502061502 51 17 2.0 6.0 0.00 1.17 0.00 95 1017.1
20260502060449 51 339 1.0 3.0 0.00 1.18 0.00 95 1017.1
20260502055446 51 0 1.0 3.0 0.00 1.18 0.00 95 1017.1
20260502054413 51 13 1.0 2.0 0.00 1.18 0.00 95 1017.3
20260502053400 51 9 1.0 4.0 0.00 1.18 0.00 95 1017.1
20260502052328 51 355 1.0 4.0 0.00 1.18 0.00 95 1017.0
20260502051339 52 342 1.0 3.0 0.00 1.18 0.00 94 1016.9
20260502050330 52 40 0.0 4.0 0.00 1.18 0.00 94 1016.7
20260502044115 52 49 1.0 6.0 0.00 1.18 1.18 94 1016.6
20260502043112 52 24 1.0 4.0 0.00 1.18 1.18 94 1016.8
20260502040919 52 35 1.0 5.0 0.00 1.18 1.18 94 1016.9
20260502035903 53 342 1.0 8.0 0.00 1.18 1.18 94 1016.6
20260502034910 53 345 2.0 9.0 0.00 1.18 1.18 94 1016.6
20260502033859 53 24 3.0 9.0 0.00 1.18 1.18 94 1016.7
20260502032833 53 348 3.0 8.0 0.00 1.18 1.18 94 1016.8
20260502031844 53 355 3.0 9.0 0.00 1.18 1.18 94 1016.7
20260502025646 52 22 3.0 10.0 0.00 1.18 1.18 94 1016.3
20260502023520 52 36 4.0 11.0 0.00 1.19 1.18 94 1015.8
20260502022448 52 342 3.0 14.0 0.00 1.19 1.18 94 1015.7
20260502021454 52 47 3.0 14.0 0.00 1.19 1.18 94 1015.5
20260502015319 53 31 3.0 10.0 0.00 1.20 1.18 95 1015.3
20260502014329 53 15 3.0 13.0 0.00 1.20 1.18 95 1015.1
20260502013322 53 55 4.0 13.0 0.00 1.20 1.18 95 1014.9
20260502012345 53 58 3.0 12.0 0.00 1.20 1.18 95 1014.7
20260502011315 53 32 3.0 12.0 0.00 1.20 1.18 95 1014.5
20260502010334 53 13 4.0 11.0 0.00 1.20 1.18 95 1014.5
20260502005309 53 344 5.0 14.0 0.00 1.20 1.18 95 1014.2
20260502004332 53 5 6.0 15.0 0.00 1.20 1.18 95 1014.1
20260502003317 54 26 6.0 18.0 0.00 1.20 1.18 95 1013.9
20260502002310 54 51 6.0 18.0 0.00 1.20 1.18 95 1013.7
20260502001240 55 72 4.0 12.0 0.00 1.20 1.18 96 1013.1
20260502000244 55 30 4.0 12.0 0.00 1.20 1.18 96 1012.8
20260501235243 55 42 5.0 14.0 0.00 1.20 1.18 96 1012.6
20260501234250 55 34 6.0 16.0 0.00 1.20 1.18 96 1012.7
20260501233257 55 19 5.0 17.0 0.00 1.19 1.17 96 1012.1
20260501232254 55 346 5.0 20.0 0.00 1.19 1.17 96 1012.6
20260501231233 55 332 7.0 20.0 0.00 1.19 1.17 96 1012.8
20260501230211 56 29 6.0 17.0 0.00 1.19 1.17 96 1012.5
20260501225218 56 38 7.0 18.0 0.00 1.19 1.17 96 1012.1
20260501223039 56 28 6.0 15.0 0.00 1.18 1.15 96 1012.2
20260501222050 56 11 6.0 15.0 0.00 1.18 1.15 96 1012.1
20260501221056 57 350 8.0 21.0 0.00 1.18 1.15 96 1011.9
20260501220113 57 348 7.0 21.0 0.00 1.18 1.15 96 1011.2
20260501215135 57 306 6.0 17.0 0.04 1.16 1.15 96 1011.8
20260501214143 57 5 6.0 17.0 0.10 1.16 1.15 96 1012.1
20260501213125 57 311 6.0 15.0 0.15 1.14 1.14 96 1011.6
20260501212148 57 350 5.0 14.0 0.05 1.12 1.10 96 1011.0
20260501211139 57 19 4.0 12.0 0.09 1.12 1.10 96 1011.6
20260501210106 57 348 4.0 12.0 0.00 1.09 1.08 96 1011.1
20260501205049 58 298 6.0 17.0 0.00 1.08 1.07 96 1010.8
20260501204043 58 5 5.0 17.0 0.00 1.08 1.07 96 1010.5
20260501201916 58 13 5.0 13.0 0.00 1.08 1.07 96 1009.3
20260501200901 58 9 5.0 13.0 0.00 1.08 1.07 96 1010.4
20260501195840 59 21 5.0 13.0 0.00 1.08 1.07 96 1009.6
20260501194859 59 67 5.0 13.0 0.00 1.08 1.07 96 1009.0
20260501193908 58 61 3.0 9.0 0.05 1.08 1.07 96 1009.8
20260501192900 58 43 3.0 9.0 0.05 1.07 1.07 96 1010.3
20260501191845 58 344 5.0 16.0 0.06 1.07 1.05 96 1010.9
20260501185658 58 355 5.0 13.0 0.00 1.05 1.03 96 1011.7
20260501184647 59 5 6.0 16.0 0.00 1.12 1.03 96 1010.0
20260501183658 59 53 7.0 19.0 0.04 1.16 1.03 96 1009.6
20260501182630 58 19 6.0 19.0 0.05 1.16 1.03 96 1010.1
20260501181649 59 5 6.0 14.0 0.06 1.15 1.02 96 1010.3
20260501180618 58 355 5.0 11.0 0.13 1.13 1.01 96 1012.0
20260501175635 58 347 4.0 10.0 0.30 1.11 0.98 96 1012.8
20260501174626 58 333 3.0 10.0 0.28 1.03 0.91 96 1013.5
20260501172504 59 30 4.0 12.0 0.34 0.96 0.84 96 1010.4
20260501171504 59 29 3.0 12.0 0.00 0.93 0.81 96 1010.3
20260501170431 59 41 4.0 11.0 0.00 0.92 0.80 96 1010.8
20260501165447 59 50 3.0 11.0 0.00 0.92 0.80 96 1010.9
20260501164440 59 15 4.0 11.0 0.00 0.92 0.80 96 1010.3
20260501163407 59 53 4.0 12.0 0.00 0.92 0.80 96 1010.0
20260501162400 59 41 4.0 16.0 0.00 0.92 0.80 96 1010.6
20260501161411 59 9 4.0 16.0 0.00 0.92 0.80 96 1010.6
20260501160421 59 55 4.0 13.0 0.04 0.92 0.80 97 1010.4
20260501155431 59 58 4.0 19.0 0.04 0.92 0.80 96 1010.0
20260501153454 58 111 5.0 19.0 0.13 0.91 0.79 96 1007.6
20260501152446 59 58 3.0 9.0 0.05 0.90 0.77 96 1010.7
20260501151435 59 17 3.0 14.0 0.00 0.89 0.76 96 1012.0
20260501145255 59 17 4.0 11.0 0.00 0.87 0.75 96 1011.6